TimeEDT,TemperatureF,Dew PointF,Humidity,Sea Level PressureIn,VisibilityMPH,Wind Direction,Wind SpeedMPH,Gust SpeedMPH,PrecipitationIn,Events,Conditions,WindDirDegrees,DateUTC
12:15 AM,53.6,49.3,85,30.10,10.0,South,5.8,-,N/A,,Clear,190,2013-09-09 04:15:00
12:34 AM,53.6,49.3,85,30.09,10.0,SSW,8.1,-,N/A,,Clear,210,2013-09-09 04:34:00
12:55 AM,53.6,49.3,85,30.09,10.0,SSW,6.9,-,N/A,,Clear,200,2013-09-09 04:55:00
1:15 AM,53.8,49.3,85,30.09,10.0,SSW,9.2,-,N/A,,Clear,200,2013-09-09 05:15:00
1:35 AM,54.5,49.3,83,30.08,10.0,SSW,10.4,-,N/A,,Clear,200,2013-09-09 05:35:00
1:55 AM,54.5,49.1,82,30.08,10.0,SSW,8.1,-,N/A,,Clear,200,2013-09-09 05:55:00
2:15 AM,55.4,48.6,78,30.07,10.0,SSW,10.4,-,N/A,,Clear,200,2013-09-09 06:15:00
2:35 AM,54.5,48.4,80,30.07,10.0,SSW,8.1,-,N/A,,Clear,200,2013-09-09 06:35:00
2:55 AM,53.8,48.4,82,30.07,10.0,SSW,6.9,-,N/A,,Clear,200,2013-09-09 06:55:00
3:15 AM,54.5,48.4,80,30.07,10.0,SSW,6.9,-,N/A,,Clear,200,2013-09-09 07:15:00
3:35 AM,54.9,48.4,79,30.05,10.0,South,6.9,-,N/A,,Clear,170,2013-09-09 07:35:00
3:55 AM,54.9,48.4,79,30.05,10.0,SSE,8.1,-,N/A,,Clear,160,2013-09-09 07:55:00
4:14 AM,54.9,48.4,79,30.05,10.0,South,6.9,-,N/A,,Clear,180,2013-09-09 08:14:00
4:35 AM,54.5,48.4,80,30.06,10.0,SSW,8.1,-,N/A,,Clear,200,2013-09-09 08:35:00
4:55 AM,54.3,48.6,81,30.06,10.0,SSW,8.1,-,N/A,,Clear,200,2013-09-09 08:55:00
5:15 AM,54.5,48.9,81,30.05,10.0,SSW,8.1,-,N/A,,Clear,200,2013-09-09 09:15:00
5:35 AM,54.0,49.1,84,30.05,10.0,SSW,10.4,-,N/A,,Clear,200,2013-09-09 09:35:00
5:54 AM,54.1,49.1,83,30.04,10.0,SSW,8.1,-,N/A,,Clear,200,2013-09-09 09:54:00
6:15 AM,54.5,49.1,82,30.03,10.0,SSW,10.4,-,N/A,,Clear,200,2013-09-09 10:15:00
6:35 AM,54.7,49.3,82,30.03,10.0,SSW,9.2,-,N/A,,Clear,210,2013-09-09 10:35:00
6:55 AM,55.2,49.3,80,30.03,10.0,SSW,9.2,-,N/A,,Clear,210,2013-09-09 10:55:00
7:15 AM,55.0,49.5,81,30.02,10.0,SSW,8.1,-,N/A,,Clear,200,2013-09-09 11:15:00
7:35 AM,55.4,50.0,82,30.02,10.0,SSW,9.2,-,N/A,,Clear,200,2013-09-09 11:35:00
7:55 AM,55.8,50.2,82,30.03,10.0,SSW,9.2,-,N/A,,Clear,210,2013-09-09 11:55:00
8:15 AM,56.5,50.7,81,30.03,10.0,SSW,10.4,-,N/A,,Clear,200,2013-09-09 12:15:00
8:35 AM,57.4,51.6,81,30.02,10.0,SSW,11.5,18.4,N/A,,Scattered Clouds,200,2013-09-09 12:35:00
8:55 AM,58.1,52.3,81,30.02,10.0,SSW,11.5,17.3,N/A,,Scattered Clouds,200,2013-09-09 12:55:00
9:15 AM,59.0,52.9,80,30.01,10.0,SSW,10.4,18.4,N/A,,Scattered Clouds,200,2013-09-09 13:15:00
9:34 AM,59.5,52.9,79,30.02,10.0,SSW,10.4,17.3,N/A,,Scattered Clouds,210,2013-09-09 13:34:00
9:55 AM,60.4,53.2,77,30.01,10.0,South,10.4,-,N/A,,Mostly Cloudy,190,2013-09-09 13:55:00
10:15 AM,61.9,54.1,76,30.01,10.0,SSW,9.2,-,N/A,,Mostly Cloudy,200,2013-09-09 14:15:00
10:35 AM,63.3,55.0,74,30.02,10.0,SSW,10.4,-,N/A,,Overcast,200,2013-09-09 14:35:00
10:55 AM,63.9,55.8,75,30.00,10.0,SSW,9.2,16.1,N/A,,Overcast,200,2013-09-09 14:55:00
11:15 AM,67.3,57.2,70,29.99,10.0,SSW,8.1,-,N/A,,Scattered Clouds,210,2013-09-09 15:15:00
11:35 AM,68.2,57.7,69,29.99,10.0,SSW,9.2,-,N/A,,Scattered Clouds,210,2013-09-09 15:35:00
11:55 AM,69.4,57.9,67,29.99,10.0,SSW,11.5,16.1,N/A,,Mostly Cloudy,200,2013-09-09 15:55:00
12:15 PM,70.2,57.9,65,29.99,10.0,SSW,10.4,18.4,N/A,,Overcast,200,2013-09-09 16:15:00
12:35 PM,71.4,58.3,63,29.98,10.0,South,12.7,18.4,N/A,,Overcast,190,2013-09-09 16:35:00
12:55 PM,72.0,59.0,64,29.98,10.0,SSW,5.8,-,N/A,,Overcast,200,2013-09-09 16:55:00
1:14 PM,71.2,58.5,64,29.97,10.0,South,9.2,-,N/A,,Overcast,180,2013-09-09 17:14:00
1:35 PM,71.6,59.2,65,29.96,10.0,South,9.2,-,N/A,,Overcast,180,2013-09-09 17:35:00
1:55 PM,71.8,59.4,65,29.96,10.0,South,9.2,-,N/A,,Overcast,180,2013-09-09 17:55:00
2:15 PM,72.5,60.3,65,29.96,10.0,SSW,4.6,-,N/A,,Overcast,200,2013-09-09 18:15:00
2:35 PM,74.5,61.0,63,29.94,10.0,South,3.5,-,N/A,,Mostly Cloudy,180,2013-09-09 18:35:00
2:55 PM,74.8,61.3,63,29.94,10.0,South,5.8,-,N/A,,Mostly Cloudy,190,2013-09-09 18:55:00
3:15 PM,74.7,61.7,64,29.92,10.0,South,6.9,-,N/A,,Overcast,180,2013-09-09 19:15:00
3:35 PM,75.4,61.5,62,29.90,10.0,South,9.2,-,N/A,,Scattered Clouds,180,2013-09-09 19:35:00
3:55 PM,75.7,61.9,62,29.88,10.0,SSE,10.4,17.3,N/A,,Clear,160,2013-09-09 19:55:00
4:15 PM,75.9,62.6,63,29.88,10.0,South,9.2,-,N/A,,Clear,190,2013-09-09 20:15:00
4:35 PM,75.2,62.6,65,29.87,10.0,South,8.1,-,N/A,,Scattered Clouds,180,2013-09-09 20:35:00
4:54 PM,74.5,62.4,66,29.88,10.0,South,5.8,-,N/A,,Clear,170,2013-09-09 20:54:00
5:15 PM,74.3,62.8,67,29.87,10.0,South,8.1,-,N/A,,Clear,180,2013-09-09 21:15:00
5:34 PM,74.3,63.1,68,29.90,10.0,SSW,4.6,-,N/A,,Scattered Clouds,200,2013-09-09 21:34:00
5:55 PM,73.6,63.7,71,29.84,10.0,SSE,10.4,-,N/A,,Mostly Cloudy,150,2013-09-09 21:55:00
6:15 PM,72.7,64.4,75,29.84,10.0,South,8.1,-,N/A,,Scattered Clouds,180,2013-09-09 22:15:00
6:35 PM,72.9,64.4,75,29.81,10.0,SSE,8.1,-,N/A,,Clear,160,2013-09-09 22:35:00
6:55 PM,73.0,64.6,75,29.83,10.0,South,6.9,-,N/A,,Clear,170,2013-09-09 22:55:00
7:14 PM,73.4,64.8,74,29.83,10.0,South,3.5,-,N/A,,Clear,170,2013-09-09 23:14:00
7:35 PM,72.9,64.9,76,29.82,10.0,SSE,4.6,-,N/A,,Scattered Clouds,160,2013-09-09 23:35:00
7:54 PM,72.1,65.1,78,29.82,10.0,SSE,3.5,-,N/A,,Scattered Clouds,160,2013-09-09 23:54:00
8:15 PM,71.8,65.5,80,29.82,10.0,South,3.5,-,N/A,,Scattered Clouds,170,2013-09-10 00:15:00
8:34 PM,71.6,65.5,81,29.82,10.0,South,5.8,-,N/A,,Scattered Clouds,180,2013-09-10 00:34:00
8:55 PM,72.0,65.8,81,29.83,10.0,South,8.1,-,N/A,,Scattered Clouds,190,2013-09-10 00:55:00
9:14 PM,71.8,65.8,81,29.83,10.0,South,5.8,-,N/A,,Clear,180,2013-09-10 01:14:00
9:35 PM,71.2,65.8,83,29.83,10.0,South,4.6,-,N/A,,Clear,170,2013-09-10 01:35:00
9:55 PM,71.1,65.8,84,29.82,10.0,South,8.1,-,N/A,,Mostly Cloudy,180,2013-09-10 01:55:00
10:14 PM,70.9,65.8,84,29.82,10.0,South,6.9,-,N/A,,Scattered Clouds,180,2013-09-10 02:14:00
10:35 PM,70.7,65.7,84,29.81,10.0,SSE,5.8,-,N/A,,Mostly Cloudy,160,2013-09-10 02:35:00
10:55 PM,70.0,65.5,86,29.80,10.0,SSE,5.8,-,N/A,,Scattered Clouds,160,2013-09-10 02:55:00
11:15 PM,69.8,65.3,86,29.77,10.0,SSE,6.9,-,N/A,,Clear,160,2013-09-10 03:15:00
11:35 PM,69.8,65.3,86,29.77,10.0,SSE,5.8,-,N/A,,Clear,160,2013-09-10 03:35:00
11:55 PM,69.8,65.3,86,29.77,10.0,South,4.6,-,N/A,,Clear,170,2013-09-10 03:55:00